Flag for Japan Weather past 2 weeks in Hamamatsu, Japan

Now
79 °F

Warm.


Feels Like: 84 °F
Forecast: 72 / 82 °F
Wind: 10 mph from South

Location: Omaezaki

Current Time: Sep 1, 2015 at 11:26:59 PM

Latest Report: Sep 1, 2015 at 10:00 PM


Visibility: 7 mi

Pressure: 29.91 "Hg

Humidity: 93%

Dew point: 77 °F

Location of HamamatsuLocation

Historic Weather in Hamamatsu — Graph

°F

Hamamatsu temperature yesterday

Maximum temperature yesterday: 82 °F (at 11:00 AM)
Minimum temperature yesterday: 76 °F (at 12:00 AM)
Average temperature yesterday: 79 °F

Past Weeks' High & Low Weather Summary

 TemperatureHumidityPressure
High87 °F (Aug 22, 2:00 PM)99% (Sep 1, 10:00 AM)30.00 "Hg (Sep 1, 10:00 AM)
Low69 °F (Aug 25, 9:00 PM)64% (Aug 24, 2:00 PM)29.50 "Hg (Aug 22, 4:00 PM)
Average79 °F85%29.79 "Hg
* Reported Aug 17 10:00 PM — Sep 1 10:00 PM, Hamamatsu, Weather by CustomWeather, © 2015

Note: Actual official high and low records may vary slightly from our data, if they occured in-between our weather recording intervals... More about our weather records

Advertising

Hamamatsu weather history for previous 24 hours

 ConditionsComfort  
Time TempWeatherWind HumidityBarometerVisibility
10:00 PM
Tue, Sep 1
79 °FWarm.10 mph93%29.91 "Hg7 mi
9:00 PM79 °FWarm.10 mph92%29.92 "Hg10 mi
8:00 PM79 °FWarm.9 mph94%29.93 "Hg9 mi
7:00 PM79 °FWarm.10 mph95%29.91 "Hg11 mi
6:00 PM79 °FLight rain. Overcast.5 mph97%29.91 "Hg7 mi
5:00 PM78 °FWarm.7 mph94%29.92 "Hg12 mi
4:00 PM77 °FWarm.7 mph92%29.92 "Hg12 mi
3:00 PM78 °FWarm.8 mph88%29.91 "Hg12 mi
2:00 PM78 °FWarm.12 mph86%29.93 "Hg12 mi
1:00 PM75 °FLight rain. Cloudy.10 mph93%29.96 "Hg12 mi
11:00 AM74 °FRain. Cloudy.9 mph98%29.98 "Hg2 mi
10:00 AM74 °FRain. Cloudy.12 mph99%29.99 "Hg1 mi
9:00 AM74 °FRain. Cloudy.16 mph98%30.00 "Hg1 mi
8:00 AM75 °FRain. Cloudy.10 mph98%29.96 "Hg1 mi
7:00 AM76 °FRain. Cloudy.8 mph95%29.95 "Hg1 mi
5:00 AM77 °FMild.9 mph90%29.95 "Hg7 mi
4:00 AM76 °FLight rain. Overcast.8 mph91%29.95 "Hg6 mi
3:00 AM77 °FFog.8 mph91%29.96 "Hg6 mi
2:00 AM76 °FFog.9 mph92%29.96 "Hg4 mi
1:00 AM77 °FFog.8 mph90%29.98 "Hg6 mi
12:00 AM77 °FFog.8 mph89%29.98 "Hg6 mi
11:00 PM
Mon, Aug 31
77 °FFog.9 mph90%29.97 "Hg6 mi
Weather by CustomWeather, © 2015

See weather overviewHow to use our weather pages